Hourly Data Report for August 14, 2021

TORONTO CITY
ONTARIO
Current Station Operator: ECCC - MSC

43°40'00.000" N
79°24'00.000" W
112.50 m
6158355
71508
XTO

Download Data

Hourly Data (August 2021)
Hourly Data Report for August 14, 2021
TIME
LST
Temp Definition
°C
Dew Point Definition
°C
Rel Hum Definition
%
Precip. Amount Definition
mm

Wind Dir Definition
10's deg

Wind Spd Definition
km/h
Visibility Definition
km
Stn Press Definition
kPa
Hmdx Definition


Wind Chill Definition


Weather Definition


00:00 21.5 10.3 49 0.0       100.42     LegendNANA
01:00 21.2 9.9 49 0.0       100.45     LegendNANA
02:00 19.6 10.3 55 0.0       100.47     LegendNANA
03:00 18.9 10.9 59 0.0       100.50     LegendNANA
04:00 18.0 10.4 61 0.0       100.55     LegendNANA
05:00 18.8 10.2 57 0.0       100.63     LegendNANA
06:00 18.3 10.6 61 0.0       100.71     LegendNANA
07:00 19.1 10.6 58 0.0       100.76     LegendNANA
08:00 20.5 10.8 54 0.0       100.83     LegendNANA
09:00 21.3 9.1 46 0.0       100.87     LegendNANA
10:00 22.5 9.3 43 0.0       100.91     LegendNANA
11:00 23.8 10.1 42 0.0       100.94 25   LegendNANA
12:00 24.1 8.9 38 0.0       100.93 25   LegendNANA
13:00 25.0 7.7 33 0.0       100.91 25   LegendNANA
14:00 25.6 8.9 35 0.0       100.90 26   LegendNANA
15:00 25.6 8.0 33 0.0       100.88 26   LegendNANA
16:00 24.4 7.9 35 0.0       100.87 25   LegendNANA
17:00 24.6 8.0 35 0.0       100.84 25   LegendNANA
18:00 23.9 8.9 38 0.0       100.82 25   LegendNANA
19:00 22.4 10.8 48 0.0       100.88     LegendNANA
20:00 20.5 11.1 55 0.0       100.96     LegendNANA
21:00 19.4 10.4 56 0.0       101.03     LegendNANA
22:00 18.6 10.4 59 0.0       101.09     LegendNANA
23:00 17.8 10.6 62 0.0       101.12     LegendNANA

Notes on Data Quality.

Legend

  • E = Estimated
  • M = Missing
  • NA = Not Available*
  • [empty] = Indicates an unobserved value
Date modified: